User: anonymous   Login
Location: Unspecified
(0.0000°N, 0.0000°E)
Time: 13:47:21
(UTC+00:00)
Language:

ASTRA 1KR - Orbit

View from above orbital plane
View from above orbital plane
View from above satellite
View from above satellite

Ground track
Ground track

The orbit data is extracted from the following two-line orbital elements,

1 29055U 06012A   14296.21818221  .00000119  00000-0  00000+0 0  1674
2 29055 000.0463 278.2400 0005215 308.8202 262.2834 01.00275367 31120
Epoch (UTC): 23 October 2014 05:14:10
Eccentricity: 0.0005215
inclination: 0.0463°
perigee height: 35763 km
apogee height: 35807 km
right ascension of ascending node: 278.2400°
argument of perigee: 308.8202°
revolutions per day: 1.00275367
mean anomaly at epoch: 262.2834°
orbit number at epoch: 3112

The dashed part of the orbit path shows where the satellite is in the earth's shadow,  

DLR